El Paso, TX

7:26 AM MDT on October 17, 2017 (GMT -0600)
El Paso International

Weather History for KELP - April, 2013

Change the Weather History Date:

Monday, April 15, 2013

  Actual Average Record
Temperature  
Mean Temperature 74 °F 64 °F  
Max Temperature 85 °F 78 °F 93 °F (1925)
Min Temperature 62 °F 51 °F 34 °F (1928)
Degree Days  
Heating Degree Days 0 3  
Month to date heating degree days 28 63  
Since 1 July heating degree days 2166 2436  
Cooling Degree Days 9 2  
Month to date cooling degree days 61 24  
Year to date cooling degree days 94 34  
Growing Degree Days 23 (Base 50)    
Moisture  
Dew Point 19 °F    
Average Humidity 16    
Maximum Humidity 26    
Minimum Humidity 6    
Precipitation  
Precipitation 0.00 in 0.01 in 0.34 in (1898)
Month to date precipitation T 0.11  
Year to date precipitation 0.71 1.23  
Snow  
Snow 0.00 in - - ()
Month to date snowfall 0.0  
Since 1 July snowfall 3.1  
Snow Depth 0.00 in    
Sea Level Pressure  
Sea Level Pressure 29.62 in    
Wind  
Wind Speed 19 mph (WSW)    
Max Wind Speed 32 mph    
Max Gust Speed 38 mph    
Visibility 10 miles    
Events      
T = Trace of Precipitation, MM = Missing Value Source: NWS Daily Summary

Daily Weather History Graph

Daily Weather History Graph

Search for Another Location

Airport or City:

Trip Planner

Search our weather history database for the weather conditions in past years. The results will help you decide how hot, cold, wet, or windy it might be!

Date:

Astronomy

Apr. 15, 2013 Rise Set
Actual Time 6:36 AM MDT 7:34 PM MDT
Civil Twilight 6:11 AM MDT 7:59 PM MDT
Nautical Twilight 5:41 AM MDT 8:29 PM MDT
Astronomical Twilight 5:11 AM MDT 9:00 PM MDT
Moon 10:15 AM MDT (4/15) No Moon Set
Length of Visible Light 13h 48m
Length of Day
12h 58m
Waxing Crescent, 25% of the Moon is Illuminated
Apr 15
Waxing Crescent
Apr 18
First Quarter
Apr 25
Full
May 2
Last Quarter
May 9
New

Hourly Weather History & Observations

Time (MDT) Temp. Dew Point Humidity Pressure Visibility Wind Dir Wind Speed Gust Speed Precip Events Conditions
12:51 AM 69.1 °F 18.0 °F 14% 29.59 in 10.0 mi WSW 20.7 mph 28.8 mph N/A   Clear
1:51 AM 66.9 °F 19.0 °F 16% 29.59 in 10.0 mi WSW 20.7 mph - N/A   Clear
2:51 AM 66.0 °F 23.0 °F 20% 29.58 in 10.0 mi WSW 16.1 mph 25.3 mph N/A   Clear
3:51 AM 64.9 °F 25.0 °F 22% 29.59 in 10.0 mi WSW 16.1 mph - N/A   Clear
4:51 AM 64.0 °F 26.1 °F 24% 29.60 in 10.0 mi WSW 18.4 mph 24.2 mph N/A   Clear
5:51 AM 64.0 °F 28.0 °F 26% 29.61 in 10.0 mi West 26.5 mph 32.2 mph N/A   Clear
6:51 AM 63.0 °F 26.1 °F 25% 29.65 in 10.0 mi WSW 18.4 mph 25.3 mph N/A   Clear
7:51 AM 62.1 °F 26.1 °F 25% 29.68 in 10.0 mi SW 11.5 mph - N/A   Clear
8:51 AM 64.9 °F 27.0 °F 24% 29.69 in 10.0 mi WSW 18.4 mph 26.5 mph N/A   Clear
9:51 AM 69.1 °F 24.1 °F 18% 29.69 in 10.0 mi WSW 17.3 mph 29.9 mph N/A   Partly Cloudy
10:51 AM 72.0 °F 19.9 °F 14% 29.69 in 10.0 mi West 25.3 mph 33.4 mph N/A   Partly Cloudy
11:51 AM 75.9 °F 18.0 °F 11% 29.66 in 10.0 mi WSW 25.3 mph 35.7 mph N/A   Partly Cloudy
12:51 PM 78.1 °F 17.1 °F 10% 29.64 in 10.0 mi West 20.7 mph 32.2 mph N/A   Partly Cloudy
1:51 PM 81.0 °F 14.0 °F 8% 29.61 in 10.0 mi WSW 21.9 mph 27.6 mph N/A   Clear
2:51 PM 82.0 °F 14.0 °F 8% 29.59 in 10.0 mi WSW 17.3 mph 31.1 mph N/A   Clear
3:51 PM 84.9 °F 10.9 °F 6% 29.56 in 10.0 mi WSW 18.4 mph 32.2 mph N/A   Clear
4:51 PM 84.9 °F 12.9 °F 7% 29.54 in 10.0 mi WSW 24.2 mph 31.1 mph N/A   Clear
5:51 PM 84.0 °F 14.0 °F 7% 29.55 in 10.0 mi West 17.3 mph 26.5 mph N/A   Clear
6:51 PM 82.0 °F 14.0 °F 8% 29.56 in 10.0 mi West 20.7 mph 29.9 mph N/A   Clear
7:51 PM 79.0 °F 16.0 °F 9% 29.59 in 10.0 mi West 20.7 mph - N/A   Clear
8:51 PM 75.9 °F 14.0 °F 10% 29.62 in 10.0 mi SW 15.0 mph 21.9 mph N/A   Clear
9:51 PM 73.9 °F 15.1 °F 11% 29.64 in 10.0 mi SW 12.7 mph 19.6 mph N/A   Clear
10:51 PM 73.0 °F 17.1 °F 12% 29.65 in 10.0 mi WSW 15.0 mph - N/A   Clear
11:51 PM 73.0 °F 18.0 °F 12% 29.63 in 10.0 mi West 18.4 mph 27.6 mph N/A   Clear